Location: Bukit Lungun
(2.6833°N, 113.9667°E)
Time: 14:30:32
(UTC+00:00)

FALCON 9 R/B - Pass Details

Date: 02 March 2021
Orbit: 290 x 10100 km, 34.5° (Epoch: 13 April)

Event Time Altitude Azimuth Distance (km) Brightness Sun altitude
Rises 12:11:50 0° 215° (SW) 3,319 5.9 -24.0°
Reaches altitude 10° 12:13:31 10° 208° (SSW) 2,770 5.3 -24.5°
Maximum altitude 12:20:09 52° 131° (SE) 2,310 4.1 -26.1°
Enters shadow 12:25:41 38° 83° (E) 3,769 4.9 -27.5°
